GW0500 Weather Reports


Display with metric or nautical units.
time (UTC)temp
F
wind
direction
speed
MPH
gust
MPH
rain 1hr
in
rain 24hr
in
rain mn
in
humidity
%
barometer
mb
20260510220056 82 173 3.0 7.0 0.00 0.00 0.00 30 1019.9
20260510215547 82 208 2.0 4.0 0.00 0.00 0.00 31 1019.8
20260510215047 82 180 1.0 5.0 0.00 0.00 0.00 33 1019.8
20260510214554 82 173 2.0 6.0 0.00 0.00 0.00 31 1019.9
20260510214047 82 144 2.0 7.0 0.00 0.00 0.00 33 1019.9
20260510213547 82 181 1.0 7.0 0.00 0.00 0.00 28 1020.0
20260510213055 82 207 2.0 7.0 0.00 0.00 0.00 27 1020.0
20260510212547 82 219 1.0 4.0 0.00 0.00 0.00 30 1020.0
20260510212048 82 124 1.0 4.0 0.00 0.00 0.00 33 1020.0
20260510211601 82 121 1.0 8.0 0.00 0.00 0.00 33 1020.0
20260510211047 81 154 1.0 8.0 0.00 0.00 0.00 32 1020.0
20260510210544 81 183 3.0 9.0 0.00 0.00 0.00 28 1020.0
20260510210053 81 95 2.0 9.0 0.00 0.00 0.00 33 1020.0
20260510205547 82 173 1.0 7.0 0.00 0.00 0.00 34 1020.0
20260510205048 81 190 1.0 7.0 0.00 0.00 0.00 35 1020.0
20260510204600 81 134 3.0 8.0 0.00 0.00 0.00 37 1020.0
20260510204050 81 205 2.0 8.0 0.00 0.00 0.00 34 1020.1
20260510203548 81 227 2.0 10.0 0.00 0.00 0.00 34 1020.0
20260510203055 81 127 3.0 10.0 0.00 0.00 0.00 30 1019.9
20260510202548 82 139 1.0 8.0 0.00 0.00 0.00 32 1020.0
20260510202046 82 97 2.0 8.0 0.00 0.00 0.00 32 1020.0
20260510201555 82 163 2.0 9.0 0.00 0.00 0.00 35 1019.9
20260510201044 82 136 3.0 9.0 0.00 0.00 0.00 32 1019.8
20260510200548 82 150 3.0 9.0 0.00 0.00 0.00 33 1019.9
20260510200053 82 165 3.0 9.0 0.00 0.00 0.00 30 1019.9
20260510195550 83 186 1.0 7.0 0.00 0.00 0.00 30 1019.8
20260510195046 82 200 2.0 11.0 0.00 0.00 0.00 29 1019.7
20260510194551 83 184 3.0 11.0 0.00 0.00 0.00 28 1019.7
20260510194048 83 187 2.0 11.0 0.00 0.00 0.00 28 1019.6
20260510193549 83 196 4.0 11.0 0.00 0.00 0.00 28 1019.6
20260510193052 83 192 3.0 13.0 0.00 0.00 0.00 27 1019.6
20260510192548 83 0 3.0 13.0 0.00 0.00 0.00 28 1019.6
20260510192049 84 136 4.0 10.0 0.00 0.00 0.00 25 1019.5
20260510191552 84 157 4.0 8.0 0.00 0.00 0.00 21 1019.5
20260510191046 84 238 3.0 9.0 0.00 0.00 0.00 21 1019.4
20260510190546 83 0 1.0 9.0 0.00 0.00 0.00 28 1019.4
20260510190054 83 199 1.0 5.0 0.00 0.00 0.00 27 1019.4
20260510185547 83 84 2.0 8.0 0.00 0.00 0.00 28 1019.5
20260510185046 83 140 1.0 8.0 0.00 0.00 0.00 28 1019.6
20260510184617 84 229 2.0 6.0 0.00 0.00 0.00 28 1019.6
20260510184048 84 0 0.0 4.0 0.00 0.00 0.00 29 1019.6
20260510183549 84 80 1.0 4.0 0.00 0.00 0.00 29 1019.6
20260510183051 84 150 1.0 6.0 0.00 0.00 0.00 26 1019.6
20260510182552 83 87 0.0 6.0 0.00 0.00 0.00 20 1019.6
20260510182047 83 98 3.0 7.0 0.00 0.00 0.00 25 1019.6
20260510181601 84 205 3.0 7.0 0.00 0.00 0.00 24 1019.5
20260510181044 83 127 1.0 5.0 0.00 0.00 0.00 21 1019.6
20260510180549 83 65 1.0 5.0 0.00 0.00 0.00 22 1019.6
20260510180114 83 188 1.0 5.0 0.00 0.00 0.00 21 1019.6
20260510175547 84 162 1.0 8.0 0.00 0.00 0.00 24 1019.7
20260510175047 84 102 2.0 8.0 0.00 0.00 0.00 17 1019.6
20260510174551 84 302 2.0 7.0 0.00 0.00 0.00 14 1019.5
20260510174047 84 0 1.0 6.0 0.00 0.00 0.00 13 1019.5
20260510173548 84 65 1.0 6.0 0.00 0.00 0.00 15 1019.4
20260510173050 84 209 2.0 5.0 0.00 0.00 0.00 16 1019.4
20260510172549 84 0 0.0 4.0 0.00 0.00 0.00 17 1019.4
20260510172047 83 0 1.0 4.0 0.00 0.00 0.00 13 1019.3
20260510171602 83 235 0.0 3.0 0.00 0.00 0.00 15 1019.4
20260510171052 82 337 0.0 4.0 0.00 0.00 0.00 15 1019.3
20260510170550 81 0 1.0 4.0 0.00 0.00 0.00 16 1019.3
20260510170101 80 279 1.0 4.0 0.00 0.00 0.00 10 1019.2
20260510165549 80 40 1.0 3.0 0.00 0.00 0.00 19 1019.2
20260510165048 79 63 0.0 3.0 0.00 0.00 0.00 17 1019.1
20260510164600 78 334 0.0 4.0 0.00 0.00 0.00 19 1019.2
20260510164048 77 0 1.0 4.0 0.00 0.00 0.00 16 1019.1
20260510163545 75 35 1.0 4.0 0.00 0.00 0.00 16 1019.1
20260510163054 73 305 1.0 4.0 0.00 0.00 0.00 20 1019.1
20260510162548 71 38 1.0 4.0 0.00 0.00 0.00 38 1019.1
20260510162050 70 0 0.0 3.0 0.00 0.00 0.00 39 1019.0
20260510161555 69 32 0.0 3.0 0.00 0.00 0.00 37 1019.0
20260510161047 69 61 0.0 3.0 0.00 0.00 0.00 45 1019.0
20260510160634 68 42 0.0 3.0 0.00 0.00 0.00 46 1018.8
20260510155547 66 19 1.0 2.0 0.00 0.00 0.00 48 1018.7
20260510155048 65 0 1.0 3.0 0.00 0.00 0.00 46 1018.7
20260510154618 64 0 0.0 3.0 0.00 0.00 0.00 50 1018.6
20260510154047 63 0 0.0 2.0 0.00 0.00 0.00 52 1018.6
20260510153546 62 0 0.0 2.0 0.00 0.00 0.00 51 1018.6
20260510153102 62 20 0.0 2.0 0.00 0.00 0.00 53 1018.5
20260510152547 61 0 0.0 2.0 0.00 0.00 0.00 49 1018.5
20260510152049 60 44 0.0 2.0 0.00 0.00 0.00 51 1018.5
20260510151554 60 47 0.0 2.0 0.00 0.00 0.00 52 1018.4
20260510151047 59 47 0.0 2.0 0.00 0.00 0.00 52 1018.4
20260510150544 58 42 0.0 2.0 0.00 0.00 0.00 53 1018.3
20260510150115 57 46 0.0 2.0 0.00 0.00 0.00 54 1018.4
20260510145548 57 46 1.0 2.0 0.00 0.00 0.00 56 1018.3
20260510145048 56 44 0.0 2.0 0.00 0.00 0.00 58 1018.3
20260510144608 55 0 0.0 2.0 0.00 0.00 0.00 60 1018.3
20260510144048 55 0 0.0 1.0 0.00 0.00 0.00 61 1018.3
20260510143546 55 259 0.0 1.0 0.00 0.00 0.00 61 1018.2
20260510143050 54 0 0.0 1.0 0.00 0.00 0.00 60 1018.2
20260510142548 54 0 0.0 1.0 0.00 0.00 0.00 58 1018.1
20260510142048 54 259 0.0 1.0 0.00 0.00 0.00 57 1018.1
20260510141557 54 259 0.0 1.0 0.00 0.00 0.00 56 1018.0
20260510141047 54 259 0.0 1.0 0.00 0.00 0.00 55 1018.0
20260510140547 53 0 0.0 1.0 0.00 0.00 0.00 54 1018.1
20260510140053 53 0 0.0 0.0 0.00 0.00 0.00 49 1018.0
20260510135547 53 0 0.0 0.0 0.00 0.00 0.00 49 1017.9
20260510135049 53 0 0.0 0.0 0.00 0.00 0.00 49 1017.9
20260510134558 53 0 0.0 0.0 0.00 0.00 0.00 46 1017.8
20260510134049 53 0 0.0 0.0 0.00 0.00 0.00 46 1017.7
20260510133547 53 0 0.0 0.0 0.00 0.00 0.00 44 1017.7
20260510133053 53 0 0.0 0.0 0.00 0.00 0.00 44 1017.6
20260510132547 52 0 0.0 0.0 0.00 0.00 0.00 43 1017.5
20260510132047 52 0 0.0 0.0 0.00 0.00 0.00 41 1017.5
20260510131556 52 0 0.0 0.0 0.00 0.00 0.00 41 1017.5
20260510131049 52 0 0.0 0.0 0.00 0.00 0.00 39 1017.5
20260510130547 52 0 0.0 0.0 0.00 0.00 0.00 38 1017.4
20260510130054 52 0 0.0 0.0 0.00 0.00 0.00 38 1017.5
20260510125545 52 0 0.0 0.0 0.00 0.00 0.00 39 1017.4
20260510125049 52 0 0.0 0.0 0.00 0.00 0.00 39 1017.4
20260510124559 52 0 0.0 0.0 0.00 0.00 0.00 38 1017.4
20260510124047 51 0 0.0 0.0 0.00 0.00 0.00 39 1017.4
20260510123547 51 0 0.0 0.0 0.00 0.00 0.00 37 1017.4
20260510123059 51 0 0.0 0.0 0.00 0.00 0.00 38 1017.4
20260510122640 51 0 0.0 0.0 0.00 0.00 0.00 41 1017.4
20260510122045 51 0 0.0 1.0 0.00 0.00 0.00 37 1017.4
20260510121557 51 0 0.0 1.0 0.00 0.00 0.00 42 1017.4
20260510121048 51 0 0.0 1.0 0.00 0.00 0.00 41 1017.4
20260510120546 51 0 0.0 1.0 0.00 0.00 0.00 41 1017.5
20260510115548 51 0 0.0 1.0 0.00 0.00 0.00 41 1017.5
20260510115048 51 0 0.0 1.0 0.00 0.00 0.00 40 1017.4
20260510114553 51 259 0.0 1.0 0.00 0.00 0.00 42 1017.5
20260510114046 51 0 0.0 1.0 0.00 0.00 0.00 41 1017.5
20260510113544 51 0 0.0 1.0 0.00 0.00 0.00 40 1017.6
20260510113054 51 0 0.0 0.0 0.00 0.00 0.00 39 1017.6
20260510112546 51 0 0.0 0.0 0.00 0.00 0.00 40 1017.6
20260510112047 51 0 0.0 0.0 0.00 0.00 0.00 40 1017.6
20260510111551 51 0 0.0 0.0 0.00 0.00 0.00 39 1017.7
20260510111044 51 0 0.0 0.0 0.00 0.00 0.00 38 1017.6
20260510110549 51 0 0.0 0.0 0.00 0.00 0.00 36 1017.6
20260510110053 51 0 0.0 0.0 0.00 0.00 0.00 38 1017.6
20260510105545 51 0 0.0 0.0 0.00 0.00 0.00 37 1017.6
20260510105045 51 0 0.0 0.0 0.00 0.00 0.00 37 1017.6
20260510104558 51 0 0.0 0.0 0.00 0.00 0.00 40 1017.5
20260510104047 51 0 0.0 0.0 0.00 0.00 0.00 37 1017.4
20260510103548 51 0 0.0 0.0 0.00 0.00 0.00 40 1017.5
20260510103052 51 0 0.0 0.0 0.00 0.00 0.00 40 1017.5
20260510102549 51 0 0.0 0.0 0.00 0.00 0.00 39 1017.5
20260510102048 51 0 0.0 0.0 0.00 0.00 0.00 43 1017.5
20260510101558 51 0 0.0 0.0 0.00 0.00 0.00 39 1017.5
20260510101047 51 0 0.0 0.0 0.00 0.00 0.00 38 1017.5
20260510100547 51 0 0.0 0.0 0.00 0.00 0.00 38 1017.6
20260510100055 51 0 0.0 0.0 0.00 0.00 0.00 39 1017.6
20260510095548 51 0 0.0 0.0 0.00 0.00 0.00 41 1017.5
20260510095046 51 0 0.0 0.0 0.00 0.00 0.00 41 1017.6
20260510094558 51 0 0.0 0.0 0.00 0.00 0.00 41 1017.6
20260510094045 51 0 0.0 0.0 0.00 0.00 0.00 40 1017.6
20260510093545 51 0 0.0 0.0 0.00 0.00 0.00 38 1017.5
20260510093052 51 0 0.0 1.0 0.00 0.00 0.00 39 1017.6
20260510092547 51 0 0.0 1.0 0.00 0.00 0.00 40 1017.7
20260510092045 51 0 0.0 0.0 0.00 0.00 0.00 41 1017.7
20260510091550 51 0 0.0 0.0 0.00 0.00 0.00 41 1017.7
20260510091048 51 0 0.0 0.0 0.00 0.00 0.00 44 1017.7
20260510090550 51 0 0.0 0.0 0.00 0.00 0.00 43 1017.7
20260510090053 51 0 0.0 0.0 0.00 0.00 0.00 42 1017.7
20260510085544 51 0 0.0 0.0 0.00 0.00 0.00 42 1017.7
20260510085045 51 0 0.0 0.0 0.00 0.00 0.00 44 1017.8
20260510084601 51 0 0.0 0.0 0.00 0.00 0.00 41 1017.8
20260510084047 51 0 0.0 0.0 0.00 0.00 0.00 41 1017.8
20260510083547 51 0 0.0 0.0 0.00 0.00 0.00 43 1017.9
20260510083113 51 0 0.0 0.0 0.00 0.00 0.00 41 1017.9
20260510082547 51 0 0.0 0.0 0.00 0.00 0.00 40 1017.9
20260510082048 51 0 0.0 0.0 0.00 0.00 0.00 41 1018.0
20260510081612 51 0 0.0 0.0 0.00 0.00 0.00 43 1018.0
20260510081048 50 0 0.0 0.0 0.00 0.00 0.00 43 1018.0
20260510080549 50 0 0.0 0.0 0.00 0.00 0.00 42 1018.0
20260510080053 50 0 0.0 0.0 0.00 0.00 0.00 42 1018.1
20260510075545 50 0 0.0 0.0 0.00 0.00 0.00 42 1018.1
20260510075047 50 0 0.0 0.0 0.00 0.00 0.00 43 1018.2
20260510074555 50 0 0.0 0.0 0.00 0.00 0.00 46 1018.3
20260510074048 50 0 0.0 0.0 0.00 0.00 0.00 44 1018.3
20260510073545 50 0 0.0 0.0 0.00 0.00 0.00 45 1018.3
20260510073056 50 0 0.0 0.0 0.00 0.00 0.00 46 1018.4
20260510072548 50 0 0.0 0.0 0.00 0.00 0.00 46 1018.5
20260510072046 50 0 0.0 0.0 0.00 0.00 0.00 46 1018.5
20260510071556 50 0 0.0 0.0 0.00 0.00 0.00 48 1018.5
20260510071048 51 0 0.0 0.0 0.00 0.00 0.00 47 1018.5
20260510070548 51 0 0.0 0.0 0.00 0.00 0.00 49 1018.5
20260510070055 51 0 0.0 0.0 0.00 0.00 0.00 46 1018.5
20260510065550 51 0 0.0 0.0 0.00 0.00 0.00 44 1018.6
20260510065046 51 0 0.0 0.0 0.00 0.00 0.00 45 1018.6
20260510064552 51 0 0.0 0.0 0.00 0.00 0.00 49 1018.6
20260510064047 51 0 0.0 0.0 0.00 0.00 0.00 51 1018.6
20260510063547 51 0 0.0 0.0 0.00 0.00 0.00 51 1018.6
20260510063050 51 0 0.0 0.0 0.00 0.00 0.00 50 1018.6
20260510062552 51 0 0.0 1.0 0.00 0.00 0.00 47 1018.6
20260510062049 51 0 0.0 1.0 0.00 0.00 0.00 47 1018.6
20260510061603 51 0 0.0 1.0 0.00 0.00 0.00 52 1018.5
20260510061048 51 0 0.0 1.0 0.00 0.00 0.00 50 1018.5
20260510060548 51 0 0.0 0.0 0.00 0.00 0.00 49 1018.5
20260510060055 51 0 0.0 0.0 0.00 0.00 0.00 40 1018.5
20260510055548 51 0 0.0 0.0 0.00 0.00 0.00 44 1018.5
20260510055047 52 0 0.0 1.0 0.00 0.00 0.00 45 1018.6
20260510054552 52 0 0.0 1.0 0.00 0.00 0.00 49 1018.5
20260510054046 52 0 0.0 2.0 0.00 0.00 0.00 51 1018.6
20260510053545 52 0 0.0 2.0 0.00 0.00 0.00 49 1018.6
20260510053057 52 259 0.0 1.0 0.00 0.00 0.00 54 1018.6
20260510052547 53 0 0.0 0.0 0.00 0.00 0.00 49 1018.5
20260510052047 53 0 0.0 0.0 0.00 0.00 0.00 55 1018.7
20260510051550 53 0 0.0 0.0 0.00 0.00 0.00 57 1018.8
20260510051049 53 0 0.0 0.0 0.00 0.00 0.00 61 1018.8
20260510050548 54 0 0.0 0.0 0.00 0.00 0.00 63 1018.8
20260510050053 54 0 0.0 0.0 0.00 0.00 0.00 65 1018.8
20260510045545 54 0 0.0 0.0 0.00 0.00 0.00 67 1018.8
20260510045049 54 0 0.0 0.0 0.00 0.00 0.00 67 1018.8
20260510044555 54 0 0.0 0.0 0.00 0.00 0.00 68 1018.7
20260510044045 54 0 0.0 0.0 0.00 0.00 0.00 68 1018.7
20260510043549 54 0 0.0 0.0 0.00 0.00 0.00 66 1018.6
20260510043055 54 0 0.0 0.0 0.00 0.00 0.00 66 1018.5
20260510042548 54 0 0.0 0.0 0.00 0.00 0.00 65 1018.5
20260510042052 54 0 0.0 0.0 0.00 0.00 0.00 66 1018.4
20260510041554 54 0 0.0 0.0 0.00 0.00 0.00 66 1018.4
20260510041045 54 0 0.0 0.0 0.00 0.00 0.00 65 1018.3
20260510040545 54 0 0.0 0.0 0.00 0.00 0.00 65 1018.3
20260510035547 54 0 0.0 0.0 0.00 0.00 0.00 64 1018.2
20260510035047 54 0 0.0 1.0 0.00 0.00 0.00 63 1018.2
20260510034558 54 0 0.0 1.0 0.00 0.00 0.00 64 1018.1
20260510034047 54 0 0.0 0.0 0.00 0.00 0.00 62 1018.0
20260510033548 54 0 0.0 0.0 0.00 0.00 0.00 64 1017.9
20260510033052 54 0 0.0 1.0 0.00 0.00 0.00 63 1017.9
20260510032547 55 0 0.0 1.0 0.00 0.00 0.00 63 1017.8
20260510032047 55 0 0.0 1.0 0.00 0.00 0.00 65 1017.8
20260510031601 55 0 0.0 1.0 0.00 0.00 0.00 63 1017.8
20260510031048 55 0 0.0 1.0 0.00 0.00 0.00 62 1017.8
20260510030546 56 0 0.0 1.0 0.00 0.00 0.00 63 1017.8
20260510030058 56 0 0.0 1.0 0.00 0.00 0.00 64 1017.7
20260510025548 57 0 0.0 0.0 0.00 0.00 0.00 64 1017.8
20260510025048 58 0 0.0 0.0 0.00 0.00 0.00 68 1017.7
20260510024557 58 0 0.0 0.0 0.00 0.00 0.00 76 1017.7
20260510024048 59 0 0.0 0.0 0.00 0.00 0.00 75 1017.7
20260510023544 59 0 0.0 0.0 0.00 0.00 0.00 75 1017.7
20260510023049 60 0 0.0 0.0 0.00 0.00 0.00 74 1017.7
20260510022547 60 0 0.0 0.0 0.00 0.00 0.00 73 1017.8
20260510022047 60 0 0.0 0.0 0.00 0.00 0.00 72 1017.7
20260510021557 61 0 0.0 0.0 0.00 0.00 0.00 72 1017.8
20260510021046 62 0 0.0 1.0 0.00 0.00 0.00 71 1017.7
20260510020547 62 0 0.0 1.0 0.00 0.00 0.00 70 1017.7
20260510020157 63 0 0.0 2.0 0.00 0.00 0.00 68 1017.7
20260510015547 63 0 0.0 2.0 0.00 0.00 0.00 67 1017.7
20260510015048 64 259 0.0 2.0 0.00 0.00 0.00 66 1017.6
20260510014559 65 0 1.0 2.0 0.00 0.00 0.00 65 1017.6
20260510014048 65 259 0.0 2.0 0.00 0.00 0.00 64 1017.7
20260510013548 66 259 0.0 3.0 0.00 0.00 0.00 62 1017.7
20260510013110 67 0 0.0 3.0 0.00 0.00 0.00 61 1017.7
20260510012548 67 172 0.0 3.0 0.00 0.00 0.00 60 1017.7
20260510012047 68 0 1.0 3.0 0.00 0.00 0.00 59 1017.7
20260510011552 68 0 0.0 3.0 0.00 0.00 0.00 60 1017.8
20260510011045 69 0 0.0 3.0 0.00 0.00 0.00 58 1017.8
20260510010544 69 0 0.0 3.0 0.00 0.00 0.00 57 1017.8
20260510010050 69 185 0.0 3.0 0.00 0.00 0.00 57 1017.8
20260510005545 70 0 0.0 3.0 0.00 0.00 0.00 55 1017.8
20260510005045 70 30 1.0 5.0 0.00 0.00 0.00 55 1017.7
20260510004555 70 180 0.0 6.0 0.00 0.00 0.00 54 1017.7
20260510004044 71 0 0.0 7.0 0.00 0.00 0.00 53 1017.7
20260510003545 71 0 2.0 7.0 0.00 0.00 0.00 53 1017.8
20260510003051 72 252 1.0 7.0 0.00 0.00 0.00 52 1017.7
20260510002550 73 146 1.0 7.0 0.00 0.00 0.00 51 1017.7
20260510002045 73 228 2.0 7.0 0.00 0.00 0.00 50 1017.7
20260510001555 74 0 0.0 4.0 0.00 0.00 0.00 49 1017.7
20260510001134 74 209 0.0 4.0 0.00 0.00 0.00 49 1017.7
20260510001045 74 209 0.0 4.0 0.00 0.00 0.00 49 1017.7
20260510000547 74 151 1.0 8.0 0.00 0.00 0.00 49 1017.7
20260510000052 74 300 3.0 8.0 0.00 0.00 0.00 47 1017.7
20260509235550 74 184 1.0 4.0 0.00 0.00 0.00 47 1017.7
20260509235045 75 145 1.0 5.0 0.00 0.00 0.00 47 1017.7
20260509234551 75 170 2.0 9.0 0.00 0.00 0.00 46 1017.7
20260509234045 75 198 1.0 10.0 0.00 0.00 0.00 46 1017.6
20260509233547 75 232 2.0 10.0 0.00 0.00 0.00 47 1017.6
20260509233058 75 0 1.0 7.0 0.00 0.00 0.00 46 1017.7
20260509232548 76 153 2.0 8.0 0.00 0.00 0.00 46 1017.7
20260509232045 76 194 1.0 8.0 0.00 0.00 0.00 45 1017.7
20260509231557 76 217 1.0 7.0 0.00 0.00 0.00 47 1017.8
20260509231044 76 196 2.0 6.0 0.00 0.00 0.00 46 1017.8
20260509230544 76 112 1.0 5.0 0.00 0.00 0.00 44 1017.7
20260509230048 76 136 1.0 4.0 0.00 0.00 0.00 45 1017.7
20260509225547 77 117 2.0 7.0 0.00 0.00 0.00 45 1017.8
20260509225044 77 128 1.0 7.0 0.00 0.00 0.00 42 1017.9
20260509224620 77 188 3.0 7.0 0.00 0.00 0.00 41 1017.9
20260509224049 77 246 1.0 7.0 0.00 0.00 0.00 43 1017.9
20260509223548 77 122 2.0 8.0 0.00 0.00 0.00 43 1018.0
20260509223059 77 115 3.0 9.0 0.00 0.00 0.00 43 1018.0
20260509222548 77 110 2.0 10.0 0.00 0.00 0.00 42 1018.1
20260509222048 77 0 3.0 10.0 0.00 0.00 0.00 38 1018.1
20260509221559 78 154 2.0 8.0 0.00 0.00 0.00 37 1018.2
20260509221047 78 132 1.0 7.0 0.00 0.00 0.00 39 1018.2
20260509220546 78 215 2.0 8.0 0.00 0.00 0.00 37 1018.3